Stations météo

réclame
Mon MeteoGroup
F16-A, Pays-Bas (6206): Température de l'air & dewpoint: 17.01.2020 22:00:00 - 23.01.2020 22:00:00 (CET)F16-A, Pays-Bas (6206): Vitesse du vent & gusts: 17.01.2020 22:00:00 - 23.01.2020 22:00:00 (CET)F16-A, Pays-Bas (6206): Direction du vent: 17.01.2020 22:00:00 - 23.01.2020 22:00:00 (CET)F16-A, Pays-Bas (6206): reduced air pressure: 17.01.2020 22:00:00 - 23.01.2020 22:00:00 (CET)F16-A, Pays-Bas (6206): visibility: 17.01.2020 22:00:00 - 23.01.2020 22:00:00 (CET)
Date & Time tt [°C] td [°C] ff [km/h] ff [knt] fx [km/h] fx [knt] dd ppp [hPa] vv [km]
23.01.2020 22:00:00 7,0 5,9 22 12 22 12 WSW 1026,0 10
23.01.2020 21:00:00 6,8 6,5 21 11 22 12 WSW 1026,5 10
23.01.2020 20:00:00 6,8 6,5 21 11 22 12 WSW 1027,0 10
23.01.2020 19:00:00 7,2 6,6 24 13 25 14 SW 1027,4 10
23.01.2020 18:00:00 7,3 6,5 26 14 29 16 WSW 1027,5 10
23.01.2020 17:00:00 7,2 7,2 24 13 25 14 SW 1027,9 10
23.01.2020 16:00:00 7,1 7,1 26 14 25 14 SW 1028,1 0,8
23.01.2020 15:00:00 7,1 7,1 24 13 25 14 - 1028,8 0,6
23.01.2020 14:00:00 7,3 7,3 21 11 22 12 SW 1030,0 5
23.01.2020 13:00:00 7,2 7,2 24 13 22 12 SW 1030,8 10
23.01.2020 12:00:00 7,0 7,0 22 12 25 14 SSW 1031,6 5
23.01.2020 11:00:00 7,0 6,9 21 11 22 12 SW 1032,1 10
23.01.2020 10:00:00 6,8 6,7 22 12 22 12 SW 1032,5 10
23.01.2020 09:00:00 6,7 6,7 18 10 18 10 SW 1033,0 10
23.01.2020 08:00:00 6,8 6,7 14 8 18 10 SW 1033,1 1,6
23.01.2020 07:00:00 6,9 6,9 18 10 18 10 SW 1033,1 7
23.01.2020 06:00:00 7,2 6,9 16 9 18 10 SW 1033,5 10
23.01.2020 05:00:00 7,2 6,8 15 8 18 10 SW 1033,9 10
23.01.2020 04:00:00 7,2 7,0 16 9 18 10 SW 1034,9 10
23.01.2020 03:00:00 7,3 7,0 15 8 18 10 SW 1035,4 10
23.01.2020 02:00:00 6,8 6,7 15 8 18 10 - 1035,7 6
23.01.2020 01:00:00 6,8 6,4 13 7 18 10 SSW 1036,2 10
23.01.2020 00:00:00 7,1 6,4 8 4 11 6 WSW 1036,3 10
22.01.2020 23:00:00 7,4 7,1 5 3 7 4 SW 1036,5 10
22.01.2020 22:00:00 7,5 6,8 2 1 22 12 - 1036,7 10
22.01.2020 21:00:00 7,4 6,5 4 2 18 10 E 1036,6 10
22.01.2020 20:00:00 7,5 7,5 4 2 14 8 - 1036,5 9
22.01.2020 19:00:00 7,5 7,5 9 5 14 8 N 1036,4 0,7
22.01.2020 18:00:00 7,6 7,6 9 5 14 8 NNW 1036,5 10
22.01.2020 17:00:00 7,6 7,5 11 6 11 6 NW 1036,1 10
22.01.2020 16:00:00 7,6 7,6 11 6 14 8 NNW 1035,9 9
22.01.2020 15:00:00 7,7 7,6 15 8 18 10 NW 1035,6 10
22.01.2020 14:00:00 7,9 7,8 18 10 22 12 WNW 1035,7 3,8
22.01.2020 13:00:00 7,9 7,9 16 9 18 10 WNW 1036,1 1,1
22.01.2020 12:00:00 7,8 7,8 16 9 18 10 WNW 1036,6 5
22.01.2020 11:00:00 7,8 7,7 11 6 14 8 W 1036,2 1,1
22.01.2020 10:00:00 7,8 7,8 13 7 14 8 WNW 1036,2 0,4
22.01.2020 09:00:00 7,8 7,7 16 9 18 10 WNW 1036,0 10
22.01.2020 08:00:00 7,7 7,3 18 10 18 10 WNW 1035,5 10
22.01.2020 07:00:00 7,7 7,4 21 11 25 14 NW 1035,5 10
22.01.2020 06:00:00 8,0 7,5 28 15 29 16 WNW 1035,4 10
22.01.2020 05:00:00 8,0 7,4 22 12 29 16 W 1035,2 9
22.01.2020 04:00:00 7,8 7,2 22 12 25 14 W 1035,3 10
22.01.2020 03:00:00 7,8 6,9 24 13 25 14 W 1035,9 10
22.01.2020 02:00:00 7,8 6,8 26 14 25 14 W 1035,9 10
22.01.2020 01:00:00 7,9 6,6 26 14 25 14 W 1036,3 10
22.01.2020 00:00:00 7,7 6,6 26 14 25 14 WSW 1036,4 10
21.01.2020 23:00:00 7,6 6,4 26 14 25 14 WSW 1036,3 10
21.01.2020 22:00:00 7,8 6,6 24 13 25 14 WSW 1036,9 10
21.01.2020 21:00:00 7,7 6,6 22 12 22 12 WSW 1037,1 10
21.01.2020 20:00:00 7,6 6,2 18 10 18 10 WSW 1037,3 10
21.01.2020 19:00:00 7,5 6,2 16 9 18 10 WSW 1037,4 10
21.01.2020 18:00:00 7,5 5,8 18 10 18 10 W 1037,7 10
21.01.2020 17:00:00 7,3 5,4 18 10 22 12 W 1037,7 10
21.01.2020 16:00:00 7,5 4,6 21 11 22 12 W 1037,9 10
21.01.2020 15:00:00 7,4 4,7 18 10 18 10 WSW 1038,3 10
21.01.2020 14:00:00 7,3 4,6 16 9 18 10 WSW 1038,9 10
21.01.2020 13:00:00 7,1 4,3 18 10 18 10 WSW 1039,3 10
21.01.2020 12:00:00 6,9 4,1 18 10 18 10 WSW 1039,5 10
21.01.2020 11:00:00 7,2 4,3 15 8 18 10 W 1039,9 10
21.01.2020 10:00:00 7,0 4,2 16 9 22 12 WSW 1040,0 10
21.01.2020 09:00:00 6,8 4,1 15 8 22 12 W 1039,7 10
21.01.2020 08:00:00 6,3 3,9 18 10 22 12 W 1039,8 10
21.01.2020 07:00:00 6,3 4,4 18 10 22 12 SW 1039,3 10
21.01.2020 06:00:00 6,7 4,3 18 10 22 12 WSW 1039,6 10
21.01.2020 05:00:00 6,8 4,2 21 11 22 12 WSW 1040,2 10
21.01.2020 04:00:00 6,7 4,2 21 11 25 14 WSW 1040,2 10
21.01.2020 03:00:00 6,8 4,1 21 11 22 12 W 1040,8 10
21.01.2020 02:00:00 6,9 4,4 21 11 25 14 WSW 1041,1 10
21.01.2020 01:00:00 7,0 4,5 24 13 29 16 WSW 1041,3 10
21.01.2020 00:00:00 7,0 4,6 26 14 29 16 WSW 1041,6 10
20.01.2020 23:00:00 6,8 4,3 29 16 29 16 WSW 1041,8 10
20.01.2020 22:00:00 6,7 4,3 29 16 32 18 WSW 1042,1 10
20.01.2020 21:00:00 6,6 4,1 29 16 32 18 WSW 1042,6 10
20.01.2020 20:00:00 6,5 4,0 29 16 29 16 WSW 1042,8 10
20.01.2020 19:00:00 6,6 4,1 29 16 29 16 WSW 1042,9 10
20.01.2020 18:00:00 6,6 4,1 26 14 29 16 WSW 1042,9 10
20.01.2020 17:00:00 6,7 4,4 22 12 25 14 WSW 1043,4 10
20.01.2020 16:00:00 6,9 4,9 22 12 22 12 WSW 1043,5 10
20.01.2020 15:00:00 7,3 5,3 22 12 22 12 WSW 1043,7 10
20.01.2020 14:00:00 7,5 5,2 24 13 22 12 WSW 1044,1 10
20.01.2020 13:00:00 7,3 5,2 24 13 25 14 WSW 1044,5 10
20.01.2020 12:00:00 7,2 4,9 24 13 25 14 WSW 1044,8 10
20.01.2020 11:00:00 7,2 4,9 22 12 25 14 WSW 1045,2 10
20.01.2020 10:00:00 7,2 4,9 22 12 22 12 WSW 1045,3 10
20.01.2020 09:00:00 7,3 5,2 22 12 22 12 WSW 1045,1 10
20.01.2020 08:00:00 7,2 5,2 21 11 22 12 WSW 1045,1 10
20.01.2020 07:00:00 7,4 5,2 22 12 22 12 W 1045,0 10
20.01.2020 06:00:00 7,5 5,0 24 13 25 14 W 1044,6 10
20.01.2020 05:00:00 7,5 4,4 24 13 25 14 W 1045,0 10
20.01.2020 04:00:00 7,6 3,8 24 13 25 14 W 1045,6 10
20.01.2020 03:00:00 7,5 4,2 24 13 25 14 WSW 1045,9 10
20.01.2020 02:00:00 7,4 4,7 24 13 25 14 W 1045,7 10
20.01.2020 01:00:00 7,5 4,6 21 11 22 12 W 1045,8 10
20.01.2020 00:00:00 7,4 4,3 21 11 22 12 W 1046,2 10
19.01.2020 23:00:00 7,4 4,1 16 9 18 10 W 1045,7 10
19.01.2020 22:00:00 7,4 4,0 18 10 18 10 W 1045,6 10
19.01.2020 21:00:00 7,4 4,1 18 10 18 10 W 1045,3 10
19.01.2020 20:00:00 7,3 3,7 16 9 22 12 WNW 1045,1 10
19.01.2020 19:00:00 7,4 4,4 26 14 25 14 WNW 1044,8 10
19.01.2020 18:00:00 7,5 4,6 24 13 29 16 NW 1044,3 10
19.01.2020 17:00:00 7,7 4,5 29 16 32 18 NW 1043,8 10
19.01.2020 16:00:00 7,9 4,2 26 14 29 16 NW 1042,7 10
19.01.2020 15:00:00 7,9 4,5 26 14 29 16 NW 1042,1 10
19.01.2020 14:00:00 7,9 4,0 31 17 36 19 NW 1041,7 10
19.01.2020 13:00:00 8,1 4,9 35 19 36 19 NNW 1041,8 10
19.01.2020 12:00:00 8,1 4,6 37 20 36 19 NNW 1041,3 10
19.01.2020 11:00:00 8,3 4,5 37 20 40 21 NNW 1040,3 10
19.01.2020 10:00:00 8,1 4,8 29 16 36 19 NNW 1039,6 10
19.01.2020 09:00:00 8,0 3,9 39 21 40 21 NNW 1038,3 10
19.01.2020 08:00:00 8,0 2,6 42 23 47 25 NNW 1037,0 10
19.01.2020 07:00:00 7,6 2,5 35 19 50 27 NNW 1035,8 10
19.01.2020 06:00:00 6,4 0,6 48 26 68 37 NNW 1034,1 10
19.01.2020 05:00:00 7,5 1,2 52 28 61 33 NNW 1033,7 10
19.01.2020 04:00:00 7,7 2,2 54 29 54 29 NNW 1032,6 10
19.01.2020 03:00:00 6,6 2,3 39 21 54 29 NNW 1032,0 10
19.01.2020 02:00:00 6,7 2,9 41 22 47 25 NW 1030,8 10
19.01.2020 01:00:00 5,9 2,4 44 24 61 33 NW 1029,8 10
19.01.2020 00:00:00 6,2 1,9 57 31 61 33 NW 1029,0 10
18.01.2020 23:00:00 7,2 2,3 42 23 50 27 NW 1027,9 10
18.01.2020 22:00:00 6,2 2,3 44 24 54 29 NW 1027,7 10
18.01.2020 21:00:00 6,7 2,3 39 21 47 25 NW 1027,1 10
18.01.2020 20:00:00 7,3 2,4 48 26 50 27 WNW 1026,3 10
18.01.2020 19:00:00 7,1 3,2 44 24 50 27 WNW 1025,4 10
18.01.2020 18:00:00 7,2 2,0 48 26 54 29 WNW 1024,6 10
18.01.2020 17:00:00 7,3 3,4 52 28 54 29 WNW 1023,6 10
18.01.2020 16:00:00 6,5 2,1 52 28 65 35 WNW 1022,4 10
18.01.2020 15:00:00 7,7 2,7 48 26 50 27 WNW 1021,7 10
18.01.2020 14:00:00 7,7 1,9 48 26 54 29 WNW 1021,2 10
18.01.2020 13:00:00 7,3 2,0 44 24 54 29 WNW 1020,6 10
18.01.2020 12:00:00 7,7 3,5 29 16 43 23 WNW 1020,0 10
18.01.2020 11:00:00 7,6 1,6 44 24 43 23 WNW 1019,3 10
18.01.2020 10:00:00 7,3 2,9 39 21 47 25 WNW 1018,3 10
18.01.2020 09:00:00 7,3 3,0 39 21 47 25 WNW 1017,2 10
18.01.2020 08:00:00 7,4 3,6 31 17 54 29 WNW 1016,4 10
18.01.2020 07:00:00 6,9 3,6 37 20 40 21 W 1015,5 10
18.01.2020 06:00:00 7,0 3,3 35 19 43 23 W 1014,8 10
18.01.2020 05:00:00 5,5 2,8 37 20 54 29 W 1014,6 5
18.01.2020 04:00:00 6,8 4,5 39 21 43 23 WSW 1013,8 10
18.01.2020 03:00:00 7,2 3,7 44 24 47 25 WSW 1013,6 10
18.01.2020 02:00:00 7,2 3,5 46 25 47 25 WSW 1012,8 10
18.01.2020 01:00:00 7,4 3,0 50 27 50 27 WSW 1012,5 10
18.01.2020 00:00:00 7,3 3,9 50 27 50 27 WSW 1011,7 10
17.01.2020 23:00:00 6,0 2,0 50 27 54 29 W 1011,4 10
17.01.2020 22:00:00 6,4 3,0 39 21 72 39 W 1010,5 10

tt = Température de l'air
td = dewpoint
ff = Vitesse du vent
fx = gusts
dd = Direction du vent
ppp = reduced air pressure
vv = visibility

stations d'obs. à proximité